When you browse on this site, cookies collect data to enhance your experience and personalize the content and advertising you see.
Visit our Privacy Policy to learn more. By continuing to use the site, you agree to this use of cookies and data.
  • In Hungary
  • List of Countries
  • For 7 days
  • Water Temperature
  • Satellite Maps
  • Weather Map
  • News
  • Weather Widgets
  • user-avatar
    Login

    Hourly Weather Cabra

    Today, 16 December, Sunday

    Time Temperature Precipitation Wind Pressure Humidity
    00:00 +10°C° 0 mm 1 mps 725 mmHg 80%
    01:00 +9°C° 0 mm 1 mps 725 mmHg 81%
    02:00 +9°C° 0 mm 1 mps 725 mmHg 81%
    03:00 +9°C° 0 mm 1 mps 724 mmHg 82%
    04:00 +9°C° 0 mm 1 mps 724 mmHg 82%
    05:00 +9°C° 0 mm 1 mps 724 mmHg 83%
    06:00 +9°C° 0 mm 1 mps 724 mmHg 84%
    07:00 +9°C° 0 mm 1 mps 724 mmHg 82%
    08:00 +10°C° 0 mm 1 mps 724 mmHg 80%
    09:00 +11°C° 0 mm 1 mps 724 mmHg 78%
    10:00 +12°C° 0 mm 2 mps 724 mmHg 73%
    11:00 +13°C° 0 mm 3 mps 725 mmHg 68%
    12:00 +14°C° 0 mm 4 mps 725 mmHg 63%
    13:00 +14°C° 0.2 mm 3 mps 725 mmHg 69%
    14:00 +13°C° 0.2 mm 3 mps 725 mmHg 76%
    15:00 +13°C° 0.2 mm 2 mps 724 mmHg 82%
    16:00 +13°C° 0.1 mm 2 mps 725 mmHg 86%
    17:00 +12°C° 0.1 mm 2 mps 725 mmHg 90%
    18:00 +12°C° 0.1 mm 1 mps 725 mmHg 93%
    19:00 +12°C° 0 mm 1 mps 726 mmHg 94%
    20:00 +12°C° 0 mm 1 mps 726 mmHg 95%
    21:00 +11°C° 0 mm 1 mps 726 mmHg 96%
    22:00 +11°C° 0 mm 1 mps 727 mmHg 95%
    23:00 +11°C° 0 mm 1 mps 727 mmHg 95%

    Tomorrow, 17 December, Monday

    Time Temperature Precipitation Wind Pressure Humidity
    00:00 +10°C° 0 mm 1 mps 727 mmHg 94%
    01:00 +10°C° 0 mm 1 mps 727 mmHg 94%
    02:00 +9°C° 0 mm 1 mps 727 mmHg 93%
    03:00 +9°C° 0 mm 1 mps 727 mmHg 93%
    04:00 +8°C° 0 mm 1 mps 727 mmHg 93%
    05:00 +8°C° 0 mm 1 mps 726 mmHg 92%
    06:00 +8°C° 0 mm 1 mps 726 mmHg 92%
    07:00 +9°C° 0 mm 1 mps 727 mmHg 89%
    08:00 +9°C° 0 mm 1 mps 727 mmHg 85%
    09:00 +10°C° 0 mm 1 mps 727 mmHg 82%
    10:00 +11°C° 0 mm 1 mps 727 mmHg 73%
    11:00 +13°C° 0 mm 1 mps 727 mmHg 63%
    12:00 +15°C° 0 mm 2 mps 727 mmHg 54%
    13:00 +15°C° 0 mm 2 mps 727 mmHg 52%
    14:00 +16°C° 0 mm 1 mps 726 mmHg 51%
    15:00 +16°C° 0 mm 1 mps 726 mmHg 49%
    16:00 +15°C° 0 mm 1 mps 726 mmHg 57%
    17:00 +13°C° 0 mm 1 mps 726 mmHg 65%
    18:00 +12°C° 0 mm 1 mps 726 mmHg 72%
    19:00 +11°C° 0 mm 1 mps 726 mmHg 75%
    20:00 +11°C° 0 mm 1 mps 726 mmHg 78%
    21:00 +9°C° 0 mm 2 mps 726 mmHg 80%
    22:00 +9°C° 0 mm 2 mps 726 mmHg 82%
    23:00 +9°C° 0 mm 2 mps 726 mmHg 83%

    Day after tomorrow, 18 December, Tuesday

    Time Temperature Precipitation Wind Pressure Humidity
    00:00 +8°C° 0 mm 2 mps 725 mmHg 84%
    01:00 +8°C° 0 mm 2 mps 725 mmHg 84%
    02:00 +8°C° 0 mm 2 mps 725 mmHg 84%
    03:00 +8°C° 0 mm 2 mps 724 mmHg 83%
    04:00 +8°C° 0 mm 2 mps 724 mmHg 83%
    05:00 +7°C° 0 mm 2 mps 724 mmHg 82%
    06:00 +7°C° 0 mm 2 mps 724 mmHg 81%
    07:00 +8°C° 0 mm 2 mps 724 mmHg 77%
    08:00 +9°C° 0 mm 2 mps 724 mmHg 74%
    09:00 +10°C° 0 mm 2 mps 724 mmHg 70%
    10:00 +13°C° 0 mm 2 mps 724 mmHg 64%
    11:00 +15°C° 0 mm 2 mps 724 mmHg 58%
    12:00 +16°C° 0 mm 2 mps 724 mmHg 53%
    13:00 +17°C° 0 mm 2 mps 724 mmHg 54%
    14:00 +17°C° 0 mm 2 mps 723 mmHg 55%
    15:00 +17°C° 0 mm 3 mps 723 mmHg 55%
    16:00 +16°C° 0 mm 2 mps 723 mmHg 63%
    17:00 +14°C° 0 mm 2 mps 723 mmHg 70%
    18:00 +13°C° 0 mm 1 mps 723 mmHg 77%
    19:00 +13°C° 0 mm 1 mps 723 mmHg 77%
    20:00 +13°C° 0 mm 1 mps 723 mmHg 78%
    21:00 +13°C° 0 mm 1 mps 723 mmHg 79%
    22:00 +12°C° 0 mm 1 mps 723 mmHg 79%
    23:00 +12°C° 0 mm 1 mps 723 mmHg 80%

    19 December, Wednesday

    Time Temperature Precipitation Wind Pressure Humidity
    00:00 +12°C° 0 mm 1 mps 723 mmHg 80%
    01:00 +12°C° 0.4 mm 1 mps 723 mmHg 80%
    02:00 +12°C° 0.4 mm 1 mps 723 mmHg 80%
    03:00 +12°C° 0.4 mm 1 mps 723 mmHg 81%
    04:00 +12°C° 0.6 mm 1 mps 723 mmHg 84%
    05:00 +11°C° 0.6 mm 1 mps 723 mmHg 87%
    06:00 +11°C° 0.6 mm 1 mps 724 mmHg 90%
    07:00 +11°C° 0 mm 1 mps 724 mmHg 89%
    08:00 +10°C° 0 mm 1 mps 725 mmHg 87%
    09:00 +9°C° 0 mm 2 mps 725 mmHg 86%
    10:00 +10°C° 0 mm 2 mps 725 mmHg 77%
    11:00 +12°C° 0 mm 2 mps 725 mmHg 67%
    12:00 +13°C° 0 mm 2 mps 726 mmHg 57%
    13:00 +13°C° 0 mm 2 mps 725 mmHg 56%
    14:00 +13°C° 0 mm 2 mps 725 mmHg 54%
    15:00 +13°C° 0 mm 3 mps 725 mmHg 53%
    16:00 +12°C° 0 mm 2 mps 725 mmHg 59%
    17:00 +10°C° 0 mm 2 mps 725 mmHg 66%
    18:00 +10°C° 0 mm 1 mps 726 mmHg 72%
    19:00 +10°C° 0 mm 1 mps 726 mmHg 74%
    20:00 +9°C° 0 mm 1 mps 726 mmHg 77%
    21:00 +9°C° 0 mm 1 mps 727 mmHg 80%
    22:00 +8°C° 0 mm 1 mps 727 mmHg 81%
    23:00 +8°C° 0 mm 1 mps 727 mmHg 83%

    20 December, Thursday

    Time Temperature Precipitation Wind Pressure Humidity
    00:00 +8°C° 0 mm 1 mps 727 mmHg 84%
    01:00 +7°C° 0 mm 1 mps 727 mmHg 85%
    02:00 +7°C° 0 mm 1 mps 726 mmHg 86%
    03:00 +7°C° 0 mm 1 mps 726 mmHg 86%
    04:00 +7°C° 0 mm 1 mps 726 mmHg 87%
    05:00 +6°C° 0 mm 1 mps 727 mmHg 87%
    06:00 +6°C° 0 mm 1 mps 727 mmHg 87%
    07:00 +7°C° 0 mm 1 mps 727 mmHg 83%
    08:00 +8°C° 0 mm 1 mps 728 mmHg 79%
    09:00 +8°C° 0 mm 1 mps 728 mmHg 75%
    10:00 +10°C° 0 mm 1 mps 728 mmHg 68%
    11:00 +11°C° 0 mm 1 mps 728 mmHg 61%
    12:00 +13°C° 0 mm 1 mps 728 mmHg 54%
    13:00 +13°C° 0 mm 1 mps 728 mmHg 52%
    14:00 +14°C° 0 mm 1 mps 727 mmHg 51%
    15:00 +14°C° 0 mm 1 mps 727 mmHg 49%
    16:00 +13°C° 0 mm 1 mps 727 mmHg 55%
    17:00 +11°C° 0 mm 1 mps 727 mmHg 60%
    18:00 +10°C° 0 mm 1 mps 728 mmHg 66%
    19:00 +10°C° 0 mm 1 mps 728 mmHg 66%
    20:00 +9°C° 0 mm 1 mps 728 mmHg 67%
    21:00 +9°C° 0 mm 1 mps 729 mmHg 68%
    22:00 +9°C° 0 mm 1 mps 729 mmHg 69%
    23:00 +8°C° 0 mm 1 mps 729 mmHg 69%

    21 December, Friday

    Time Temperature Precipitation Wind Pressure Humidity
    00:00 +8°C° 0 mm 1 mps 729 mmHg 70%
    01:00 +8°C° 0 mm 1 mps 729 mmHg 70%
    02:00 +8°C° 0 mm 1 mps 728 mmHg 70%
    03:00 +8°C° 0 mm 1 mps 728 mmHg 71%
    04:00 +8°C° 0 mm 1 mps 728 mmHg 70%
    05:00 +8°C° 0 mm 1 mps 728 mmHg 70%
    06:00 +8°C° 0 mm 1 mps 729 mmHg 69%
    07:00 +8°C° 0 mm 1 mps 729 mmHg 67%
    08:00 +9°C° 0 mm 1 mps 729 mmHg 65%
    09:00 +10°C° 0 mm 1 mps 730 mmHg 63%
    10:00 +12°C° 0 mm 1 mps 730 mmHg 57%
    11:00 +14°C° 0 mm 1 mps 730 mmHg 52%
    12:00 +15°C° 0 mm 1 mps 730 mmHg 46%
    13:00 +16°C° 0 mm 1 mps 729 mmHg 46%
    14:00 +16°C° 0 mm 1 mps 729 mmHg 45%
    15:00 +18°C° 0 mm 1 mps 729 mmHg 45%
    16:00 +15°C° 0 mm 1 mps 729 mmHg 50%
    17:00 +14°C° 0 mm 1 mps 729 mmHg 56%
    18:00 +12°C° 0 mm 1 mps 729 mmHg 61%
    19:00 +12°C° 0 mm 1 mps 729 mmHg 62%
    20:00 +12°C° 0 mm 1 mps 729 mmHg 63%
    21:00 +11°C° 0 mm 1 mps 729 mmHg 64%
    22:00 +11°C° 0 mm 1 mps 729 mmHg 65%
    23:00 +11°C° 0 mm 1 mps 729 mmHg 66%
    Show more